Погода в Кафр-эш-Шейхе

Египет     31°06′32″N   30°56′33″E
темп.,
°C
ветер,
м/с
пор.,
м/с
влажн.,
%
обл.,
%
осадки,
мм/ч
давл.,
гПа
погр.,
м
18 апреля, вс
вс1823:00+18в49500 0.0 1015138
02:00+17в49590 0.0 1014140
05:00+17вюв48570 0.0 1013123
08:00+27всв45240 0.0 1014350
11:00+39вюв4680 0.0 10131382
14:00+43вюв3350 0.0 10103457
17:00+37всв781352 0.0 1010610
20:00+24св3638100 0.0 101388
19 апреля, пн
пн1923:00+23всв4844100 0.0 1013123
02:00+23в4840100 0.0 1011113
05:00+23ююв3337100 0.0 101024
08:00+32ю2317100 0.0 1011245
11:00+41ю487100 0.0 10093319
14:00+41юз787100 0.0 10074352
17:00+38зюз4810100 0.0 1008580
20:00+24сз4939100 0.0 1010208
20 апреля, вт
вт2023:00+19сз4107768 0.0 1011233
02:00+18сз6128362 0.0 1012390
05:00+17ссз5137688 0.0 1012424
08:00+22ссз79464 0.0 1015706
11:00+27с66290 0.0 10151110
14:00+27ссз87273 0.0 10151073
17:00+22с78380 0.0 1016803
20:00+16с410710 0.0 1017356
21 апреля, ср
ср2123:00+14с23845 0.0 101958
02:00+13ссз368664 0.0 1018101
05:00+13с358359 0.0 1018101
08:00+20ссв45465 0.0 1019800
11:00+27ссв542114 0.0 10181314
14:00+28с7520100 0.0 10161354
17:00+23ссв7730100 0.0 1017953
20:00+16с4972100 0.0 1020267
22 апреля, чт
чт2223:00+14св2386100 0.0 101955
02:00+13ссв3389100 0.0 101858
05:00+13ссв37899 0.0 1018116
08:00+21ссв56445 0.0 1019681
11:00+28ссв55202 0.0 10181234
14:00+29с76182 0.0 10171312
17:00+24ссв77285 0.0 1017890
20:00+15ссв38680 0.0 1019158